Regional Weather Roundup
Issued by NWS Charleston, SC

Current Version | Previous Version | Graphics & Text | Print | Product List | Glossary On
Versions: 1 2 3 4 5 6 7 8 9 10 11 12 13 14 15 16 17 18 19 20 21 22 23 24 25 26 27 28 29 30 31 32 33 34 35 36 37 38 39 40 41 42 43 44 45 46 47 48 49 50
000
ASUS42 KCHS 272311
RWRCHS

REGIONAL WEATHER ROUNDUP
NATIONAL WEATHER SERVICE CHARLESTON SC
600 PM EST FRI FEB 27 2015

NOTE: "FAIR" INDICATES FEW OR NO CLOUDS BELOW 12,000 FEET WITH NO
SIGNIFICANT WEATHER AND/OR OBSTRUCTIONS TO VISIBILITY.

NOT ALL STATIONS ARE QUALITY CONTROLLED BY THE NATIONAL
WEATHER SERVICE. USE DATA WITH CAUTION...ESPECIALLY
DEWPOINT OBSERVATIONS.

SCZ027-030-031-034>040-042>050-280000-
...SOUTHEAST SOUTH CAROLINA...

CITY           SKY/WX    TMP DP  RH WIND       PRES   REMARKS
N CHARLESTON   CLOUDY    46  34  62 E6        30.37R
WATERFRONT PRK   N/A     46 N/A N/A E10G16      N/A
MOUNT PLEASANT LGT RAIN  45  36  70 CALM      30.37S
PINOPOLIS        N/A     55  36  47 MISG      30.29R
MONCKS CORNER  FAIR      50  36  57 CALM      30.36R
SUMMERVILLE    NOT AVBL
BEAUFORT MCAS  CLOUDY    47  36  65 E5        30.36R
BEAUFORT ARPT  FAIR      45  37  76 CALM      30.36R
HILTON HEAD IS MOCLDY    46  37  71 NE7       30.37R
WALTERBORO     MOCLDY    50  36  57 CALM      30.37R
ALLENDALE      FAIR      54  37  54 CALM      30.34R

...SOUTHERN MIDLANDS AND PEE DEE...

CITY           SKY/WX    TMP DP  RH WIND       PRES   REMARKS
GEORGETOWN     NOT AVBL
KINGSTREE      NOT AVBL
ORANGEBURG     CLEAR     52  32  46 E5        30.35R
BARNWELL       FAIR      54  36  50 NE6       30.35R
AIKEN          FAIR      54  34  47 N7        30.37R
MANNING        FAIR      50  36  57 NE3       30.36R
COLUMBIA       PTCLDY    52  32  46 W5        30.35R
SUMTER         CLEAR     51  34  52 E6        30.35R
FLORENCE       CLEAR     50  31  48 NE7       30.37R
MYRTLE BEACH   CLEAR     46  34  61 SE5       30.40R
N MYRTLE BEACH MOCLDY    45  35  68 SE5       30.38R

$$

GAZ063-065-086>088-099>101-113>116-118-119-134>141-150-280000-
...SOUTHEAST GEORGIA...

CITY           SKY/WX    TMP DP  RH WIND       PRES   REMARKS
SAVANNAH ARPT  CLOUDY    48  35  60 E10       30.35R
HUNTER AAF     CLOUDY    47  36  65 E10       30.33R
FORT STEWART   CLOUDY    50  37  62 E3        30.32R
STATESBORO     MOCLDY    51  38  62 E3        30.34R
SYLVANIA       PTCLDY    52  40  64 E5        30.35R
CLAXTON        FAIR      52  39  62 NE3       30.34R

...CSRA...CENTRAL AND FAR SOUTHEAST GEORGIA...

CITY           SKY/WX    TMP DP  RH WIND       PRES   REMARKS
THOMSON        CLEAR     56  41  56 CALM      30.38R
AUGUSTA-BUSH   CLEAR     55  32  41 CALM      30.34R
AUGUSTA-DANIEL CLEAR     56  32  40 N5        30.34R
SWAINSBORO     FAIR      55  28  35 NE3       30.34R
VIDALIA        PTCLDY    54  37  54 E6        30.33S
EASTMAN        FAIR      55  39  55 NE5       30.35R
HAZLEHURST     FAIR      53  41  62 N5        30.32R
ALMA           CLOUDY    50  37  61 VRB3      30.32R
WAYCROSS       CLOUDY    54  40  60 E3        30.32R
JESUP          FAIR      52  41  66 SE5       30.34R
BAXLEY         FAIR      52  37  58 CALM      30.32S
BRUNSWICK      CLOUDY    48  34  57 NE8       30.34S
SAINT SIMONS   CLOUDY    47  36  65 NE14G20   30.33S

$$

SCZ027-028-034-036>038-045-046-048>050-GAZ119-141-280000-
...LAKE AND SUPPLEMENTAL COASTAL OBSERVATIONS...

STATION/POSITION TIME  TEMP    WIND        PRES    WAVE   SWELL
                       AIR SEA DIR/SP/G            HT/PER HT/PER/DIR
                 (UTC) (F)     (DEG/KT/KT) (MB)    (FT/S) (FT/S/D)
UPR LAKE MARION  NOT AVBL
WINYAH BAY       NOT AVBL
LAKE MURRAY      2200   53     190/  4/  4 1027.1R
ACE BASIN NERRS  NOT AVBL
FORT PULASKI     2200   47 49   50/ 10/ 13 1028.0F
SAPELO ISLAND    2200   48      40/ 10     1027.0S

$$

ANZ835-935-AMZ111-154-330-350-352-354-370-450-454-472-280000-
...C-MAN AND BUOY OBSERVATIONS...

STATION/POSITION TIME  TEMP    WIND        PRES    WAVE   SWELL
                       AIR SEA DIR/SP/G            HT/PER HT/PER/DIR
                 (UTC) (F)     (DEG/KT/KT) (MB)    (FT/S) (FT/S/D)
BUOY 41004       2250   51 66   40/ 17/ 21 1027.3R   5/ 6   2/ 8
BUOY 41008       2250   49 52   40/ 19/ 23 1026.6R   5/ 6   2/120/11
FOLLY BEACH CMAN 2300   46      60/ 11/ 13 1028.8R
CAPERS NEARSHORE NOT AVBL
FRIPP NEARSHORE  2200   47      70/ 12/ 16 1026.5F


STATION/POSITION TIME  TEMP    WIND        PRES    WAVE   SWELL
                       AIR SEA DIR/SP/G            HT/PER HT/PER/DIR
                 (UTC) (F)     (DEG/KT/KT) (MB)    (FT/S) (FT/S/D)
5E ST. MARYS GA  2221      53                N/A     5/ 6   2/100/12
FRYING PAN BUOY  2250   48 62   40/ 16/ 19 1028.9R   4/11   3/ 90/11
BUOY 41025       NOT AVBL
CAPE LOOKOUT NC  2300   44      40/ 13/ 17 1029.3R
BUOY 41002       2250   63 70  360/ 17/ 21 1025.0R  11/11   8/ 20/11
BUOY 41010       2220   66 73   50/ 19/ 23 1021.7S
ST AUGUSTINE FL  2300   51     360/ 22/ 26 1025.8R


$$


USA.gov is the U.S. government's official web portal to all federal, state and local government web resources and services.